User: anonymous   Login
Location: ????????
(55.3155°N, 39.2900°E)
Time: 19:42:28
(UTC+00:00)
Language:

Cosmos 1943 Rocket - Orbit

View from above orbital plane
View from above orbital plane
View from above satellite
View from above satellite

Ground track
Ground track

The orbit data is extracted from the following two-line orbital elements,

1 19120U 88039B   24166.55419737  .00000253  00000-0  14297-3 0  9997
2 19120  71.0152 327.1303 0023660 234.5225 125.3692 14.19416497868534
Epoch (UTC): 14 June 2024 13:18:02
Eccentricity: 0.0023660
inclination: 71.0152°
perigee height: 810 km
apogee height: 844 km
right ascension of ascending node: 327.1303°
argument of perigee: 234.5225°
revolutions per day: 14.19416497
mean anomaly at epoch: 125.3692°
orbit number at epoch: 86853

The dashed part of the orbit path shows where the satellite is in the earth's shadow,  

DLR